Wind_Speed
59 61 59 51 44 39 37 33 32 35 35 35 32 29 27 29 28 31 32 34 32 26 24 17 13 14 30 33 42 63 86 83 75 74 74 78 81 78 78 83 88 80 83 79
59 59 53 43 39 35 35 33 31 35 39 34 33 29 28 32 30 32 30 40 38 32 29 23 28 29 27 27 28 37 56 79 90 90 83 85 91 89 80 82 82 85 86 83
56 52 44 38 34 32 33 32 32 37 43 38 37 34 29 38 40 34 36 43 42 44 39 41 44 41 38 45 42 34 41 56 52 57 62 70 69 66 78 78 80 82 83 83
49 43 36 35 31 30 31 33 33 38 44 43 39 37 34 40 39 42 45 46 48 49 47 47 45 47 54 52 56 52 62 58 53 59 60 63 68 76 82 77 78 81 82 85
40 35 33 30 30 30 32 34 36 38 45 45 43 44 35 48 42 43 52 54 55 53 57 54 53 59 66 59 55 65 65 68 64 72 72 75 74 80 87 81 76 76 78 80
35 31 30 28 28 30 30 33 38 37 42 43 49 51 44 51 51 48 50 54 60 62 63 64 63 63 58 58 59 62 71 82 78 76 80 85 83 82 84 84 81 79 76 79
29 28 28 27 26 30 30 32 36 39 40 42 51 54 49 47 57 52 49 52 57 65 70 70 72 70 70 70 71 70 71 72 72 76 80 87 87 87 85 83 81 80 78 73
29 27 26 27 27 27 31 33 34 38 40 43 46 50 56 57 51 60 54 57 55 56 59 71 78 76 76 82 80 78 78 75 77 77 76 80 82 77 70 69 73 76 75 74
30 29 29 28 28 28 28 33 35 37 40 44 45 51 52 59 59 56 57 56 58 62 63 63 64 71 73 83 85 86 81 82 78 75 77 76 76 74 71 70 65 65 65 63
30 30 32 31 30 29 29 30 32 37 39 42 45 49 52 53 55 60 60 60 62 59 66 68 68 69 69 72 78 79 86 87 82 79 79 78 79 79 74 69 67 64 62 61
29 32 33 33 34 33 33 32 33 34 39 43 45 47 48 49 53 56 66 67 64 66 66 66 71 71 73 72 72 75 79 81 80 79 78 76 74 74 73 73 75 71 65 65
34 36 35 35 35 35 37 38 37 36 38 41 44 46 47 48 49 54 57 62 67 69 69 73 75 76 75 77 80 82 78 76 77 76 77 78 77 74 74 71 71 71 70 67
37 37 37 36 37 38 38 40 42 39 37 40 42 45 47 48 48 49 51 54 58 65 70 72 73 73 75 76 75 76 81 84 79 78 78 73 75 73 70 71 72 72 72 70
38 38 39 39 39 39 39 40 40 39 37 36 38 42 44 46 48 49 49 51 54 58 60 63 66 67 69 70 71 72 74 75 77 77 77 78 78 77 76 73 71 73 69 65
39 40 39 39 38 35 34 34 34 34 34 33 34 35 37 40 43 46 49 52 53 53 53 55 56 58 60 63 64 65 66 68 67 70 73 74 72 72 69 68 67 66 67 64
39 39 38 34 30 29 28 27 27 29 30 31 33 34 34 36 38 40 43 47 51 55 57 57 57 57 56 56 56 57 57 57 58 60 66 68 67 66 63 63 63 64 64 62
39 36 31 27 24 23 23 23 24 25 26 27 29 32 34 36 37 37 39 41 43 44 47 50 52 54 56 57 58 58 57 57 56 57 58 60 61 61 61 61 61 62 60 59
34 28 25 24 21 18 18 18 19 20 22 24 26 29 31 33 35 37 38 39 39 41 41 42 44 46 48 50 51 53 53 54 55 56 56 55 55 57 58 59 59 59 57 57
25 23 21 18 18 18 17 18 18 19 20 21 23 25 28 31 33 35 35 37 38 39 40 41 41 42 43 45 47 48 49 51 52 53 53 54 54 55 57 58 58 57 56 57
20 16 16 15 15 14 13 14 16 16 18 19 22 24 26 28 30 31 30 31 34 37 38 39 40 41 43 44 45 46 47 48 50 52 52 52 53 55 55 56 57 57 57 57
15 14 13 10 11 11 12 13 14 17 19 19 20 21 21 21 24 27 31 33 33 33 34 36 39 40 41 42 44 44 45 46 47 49 51 52 53 54 55 56 57 58 58 59
13 10 9 10 10 8 7 8 10 11 13 16 18 19 20 21 21 23 25 27 29 30 32 34 35 36 38 40 41 42 44 46 46 47 48 50 52 54 55 56 57 58 59 60
10 9 8 6 5 5 7 10 13 16 19 22 24 26 27 28 28 29 29 29 27 27 29 31 34 36 36 37 39 41 41 42 44 46 48 49 49 51 53 55 57 58 59 61
8 6 6 3 2 6 10 13 16 18 21 24 26 28 30 32 33 34 35 35 34 33 34 33 32 33 35 37 38 38 40 42 42 43 44 47 49 50 50 52 54 57 59 61
8 6 3 2 5 8 10 13 16 19 21 24 27 30 32 34 36 37 38 39 39 39 39 38 37 35 34 35 37 38 39 40 41 43 44 45 46 48 50 51 52 53 55 58
10 7 3 3 5 7 11 15 18 21 24 27 30 33 36 39 41 43 43 44 45 44 43 42 41 40 38 37 36 38 39 39 40 41 42 43 45 45 47 48 50 51 52 53
10 6 6 7 8 11 15 20 24 26 28 30 32 34 36 39 41 44 47 47 47 48 48 47 46 45 44 41 39 38 38 39 40 41 41 42 43 43 45 46 47 48 50 51
Wind_Direction
293 299 300 297 289 282 282 279 267 262 255 257 245 227 224 202 188 179 165 156 161 146 145 153 167 190 201 199 211 217 221 225 224 229 240 244 247 247 254 247 247 246 247 248
296 297 298 289 284 279 279 277 267 250 244 248 240 228 223 198 192 194 190 170 166 167 173 173 165 196 189 182 213 207 219 229 234 237 242 247 250 253 248 245 245 245 248 249
297 294 291 285 282 280 275 268 263 244 238 239 242 231 228 194 196 194 190 177 178 178 178 175 186 204 195 188 208 214 199 208 223 224 233 238 241 244 243 242 244 247 248 249
294 289 287 284 282 276 268 262 260 241 236 238 240 225 226 193 192 193 195 191 190 187 184 192 199 203 200 201 203 212 206 217 215 222 223 226 231 233 236 245 246 246 249 249
289 286 285 282 281 274 265 255 255 247 237 238 239 227 233 207 206 207 197 199 196 194 196 198 202 207 203 215 215 213 220 223 224 223 228 229 234 238 238 247 251 251 250 251
288 287 286 280 278 275 267 254 252 250 240 240 233 230 229 218 204 203 203 203 203 198 200 201 203 210 217 222 225 227 224 227 231 232 229 234 234 239 245 249 255 256 255 255
289 289 287 282 278 276 267 262 255 251 246 240 233 234 235 227 210 212 205 204 205 208 208 209 209 215 219 224 228 233 238 236 234 237 235 237 238 243 248 252 257 258 259 259
291 290 288 285 282 273 270 266 258 253 250 244 240 239 241 239 236 223 220 216 211 212 211 214 218 220 225 226 229 234 239 239 242 243 242 240 245 247 251 255 258 259 260 260
294 291 290 286 280 277 271 268 265 256 249 249 246 243 240 240 241 237 237 231 230 223 222 220 222 224 224 225 231 237 238 241 244 244 244 246 248 246 248 253 258 259 257 254
291 289 293 287 285 278 273 269 264 262 260 255 251 250 251 245 243 242 244 241 240 240 235 232 234 233 233 234 235 236 239 242 244 246 248 248 249 250 250 255 258 258 258 257
292 293 292 286 284 284 279 273 268 263 259 259 258 255 251 250 248 242 243 245 248 245 243 243 240 241 242 245 245 244 244 246 251 253 251 255 258 256 258 256 256 255 255 257
297 295 292 287 284 283 281 278 273 267 260 256 257 257 256 257 252 248 247 244 248 251 250 248 248 249 249 250 250 249 252 254 255 258 259 260 263 265 262 259 256 252 252 250
297 293 289 286 284 281 277 275 275 272 264 259 257 255 257 257 256 256 255 254 252 250 249 248 250 251 252 254 253 254 255 258 261 262 260 261 260 262 261 259 258 255 253 250
294 292 291 290 287 284 281 277 276 274 270 263 261 258 258 259 262 263 261 259 257 256 254 252 254 255 255 257 257 258 258 258 259 259 260 260 260 260 260 259 257 259 256 253
295 293 293 292 290 287 282 278 276 274 272 268 264 262 262 260 261 262 264 265 266 265 264 262 261 260 260 260 259 260 260 260 258 259 261 259 258 259 258 258 258 259 258 254
297 297 297 296 293 289 284 282 279 278 279 278 277 276 275 273 270 268 266 265 265 266 267 269 270 269 267 266 265 264 264 262 260 258 257 258 259 258 257 256 255 255 254 253
300 299 298 296 294 292 288 286 283 283 282 282 282 283 283 283 282 280 276 273 270 269 268 266 266 266 266 267 268 268 269 269 267 263 259 258 257 257 255 254 254 252 251 250
301 299 299 299 298 295 293 291 290 288 286 286 287 286 287 287 287 286 285 284 281 278 276 273 270 267 265 263 263 263 264 265 265 265 265 263 261 258 255 254 253 252 251 249
299 298 298 298 301 304 305 303 300 299 299 300 300 299 296 293 290 289 289 289 287 285 283 280 277 274 271 269 268 267 266 265 264 264 263 262 259 258 257 256 255 254 252 249
299 296 297 301 298 296 301 306 310 313 313 312 309 307 306 305 303 300 295 290 288 288 287 284 281 279 277 275 273 271 269 268 267 265 263 262 261 260 257 257 256 254 252 251
292 295 293 292 303 310 309 306 304 301 303 301 297 295 298 307 304 304 303 304 301 295 290 287 286 284 281 278 276 275 273 270 268 266 265 263 261 259 259 258 256 255 252 250
289 281 293 301 300 305 330 337 336 341 345 345 341 340 342 342 329 314 306 301 301 301 302 300 294 289 286 284 280 277 275 274 272 270 267 264 263 261 259 258 257 256 255 253
266 286 280 273 297 343 359 358 360 1 3 3 360 357 353 350 347 343 337 328 322 317 307 304 302 300 296 289 285 284 282 278 275 272 271 269 266 263 261 260 258 256 255 254
264 239 254 255 338 355 11 9 3 359 359 356 353 351 349 349 349 348 345 342 337 330 322 315 307 302 299 296 292 288 283 281 280 277 274 272 270 268 265 262 260 258 257 256
226 220 218 315 12 3 359 356 355 355 353 351 350 350 349 348 347 344 341 340 338 335 331 326 317 309 301 297 294 291 287 284 281 279 278 276 273 270 269 266 264 261 259 258
212 215 237 312 325 335 340 341 342 340 341 342 343 343 343 343 342 341 341 339 337 334 331 327 323 317 311 304 299 294 291 288 284 281 279 277 276 273 270 268 267 265 263 261
216 228 259 277 304 322 329 329 330 330 330 331 333 335 335 334 335 335 335 334 333 331 329 327 324 321 316 311 305 300 295 292 289 286 283 279 277 274 272 271 269 267 266 265
Height
10350 10344 10336 10332 10327 10324 10321 10321 10321 10319 10321 10321 10323 10323 10325 10327 10327 10329 10329 10330 10335 10340 10345 10351 10358 10364 10372 10379 10389 10398 10407 10414 10422 10430 10434 10440 10448 10452 10459 10463 10466 10472 10475 10480
10338 10329 10324 10321 10317 10314 10311 10310 10312 10312 10313 10314 10315 10318 10320 10323 10324 10326 10329 10328 10332 10337 10343 10351 10354 10361 10368 10374 10381 10390 10398 10408 10413 10419 10424 10429 10435 10437 10442 10445 10450 10454 10457 10463
10324 10317 10313 10309 10306 10303 10301 10301 10304 10306 10308 10308 10309 10312 10313 10316 10319 10323 10326 10328 10331 10333 10340 10346 10355 10361 10365 10368 10377 10382 10388 10396 10401 10408 10413 10418 10421 10422 10423 10429 10433 10438 10443 10447
10312 10306 10302 10298 10296 10293 10292 10293 10296 10299 10301 10301 10303 10306 10307 10309 10313 10316 10320 10324 10327 10330 10334 10341 10348 10352 10358 10361 10367 10373 10377 10383 10390 10394 10396 10400 10404 10405 10406 10412 10415 10420 10424 10429
10302 10296 10293 10289 10286 10284 10283 10284 10286 10290 10294 10296 10298 10300 10301 10303 10305 10308 10311 10314 10320 10325 10329 10333 10338 10343 10346 10350 10358 10362 10366 10371 10375 10379 10382 10382 10388 10389 10391 10394 10398 10402 10406 10410
10292 10287 10284 10281 10277 10275 10274 10274 10276 10280 10285 10289 10292 10292 10294 10296 10296 10299 10303 10307 10311 10315 10320 10323 10327 10332 10338 10343 10346 10349 10354 10357 10360 10364 10367 10365 10371 10372 10374 10378 10381 10384 10390 10392
10282 10278 10275 10272 10270 10267 10266 10266 10266 10269 10273 10279 10284 10286 10287 10289 10290 10292 10294 10298 10302 10307 10310 10315 10318 10321 10327 10330 10333 10335 10338 10340 10343 10347 10350 10352 10355 10358 10360 10361 10364 10366 10369 10373
10272 10270 10267 10264 10262 10260 10258 10256 10256 10257 10261 10267 10272 10276 10279 10280 10282 10284 10286 10290 10292 10296 10298 10304 10309 10312 10315 10316 10317 10320 10321 10323 10326 10329 10333 10336 10338 10342 10344 10345 10347 10349 10352 10356
10264 10260 10258 10256 10254 10252 10251 10248 10248 10247 10248 10251 10257 10261 10265 10269 10273 10276 10278 10280 10282 10284 10286 10289 10292 10294 10296 10299 10301 10304 10305 10306 10309 10312 10315 10318 10320 10322 10324 10327 10329 10331 10333 10336
10254 10251 10247 10245 10243 10242 10240 10240 10239 10237 10237 10237 10239 10242 10247 10252 10256 10260 10264 10267 10270 10272 10274 10276 10278 10280 10282 10285 10285 10286 10288 10289 10291 10294 10296 10298 10301 10303 10307 10309 10311 10312 10314 10316
10244 10242 10239 10235 10232 10230 10229 10229 10228 10227 10225 10224 10225 10226 10228 10232 10238 10242 10246 10248 10251 10255 10257 10259 10260 10262 10264 10265 10267 10269 10270 10272 10273 10274 10276 10278 10280 10282 10285 10287 10291 10292 10293 10295
10234 10231 10228 10225 10222 10219 10216 10214 10214 10213 10212 10211 10211 10211 10213 10215 10218 10221 10225 10229 10233 10234 10236 10238 10240 10242 10243 10244 10245 10246 10248 10250 10252 10253 10255 10256 10258 10259 10262 10264 10266 10268 10269 10273
10224 10220 10216 10213 10210 10208 10205 10201 10199 10200 10200 10199 10198 10198 10199 10200 10202 10203 10205 10207 10209 10213 10216 10217 10219 10219 10221 10224 10226 10227 10228 10229 10230 10232 10234 10236 10237 10239 10239 10240 10242 10243 10245 10248
10213 10209 10205 10202 10198 10195 10192 10189 10187 10186 10187 10187 10188 10188 10188 10188 10188 10188 10189 10190 10192 10194 10195 10196 10197 10198 10199 10201 10202 10205 10206 10208 10209 10210 10210 10210 10213 10214 10216 10218 10218 10219 10223 10228
10202 10198 10193 10189 10185 10182 10180 10178 10176 10175 10175 10175 10175 10176 10176 10176 10175 10174 10173 10173 10174 10175 10176 10176 10176 10176 10177 10178 10179 10180 10182 10183 10184 10184 10185 10186 10187 10189 10192 10195 10196 10197 10200 10203
10191 10187 10182 10178 10175 10172 10171 10169 10167 10166 10165 10165 10164 10165 10164 10164 10164 10163 10163 10162 10160 10158 10157 10156 10155 10155 10156 10156 10157 10158 10160 10161 10162 10163 10163 10163 10165 10166 10169 10172 10174 10176 10180 10184
10180 10176 10172 10169 10167 10165 10164 10162 10160 10159 10158 10157 10156 10155 10153 10152 10150 10149 10147 10146 10145 10144 10143 10141 10140 10139 10138 10137 10137 10137 10138 10138 10139 10140 10141 10143 10144 10146 10148 10151 10153 10156 10160 10164
10172 10167 10164 10162 10160 10159 10157 10155 10154 10153 10151 10150 10149 10147 10144 10141 10138 10135 10133 10130 10129 10127 10125 10124 10123 10122 10121 10121 10120 10120 10120 10120 10120 10120 10121 10122 10124 10125 10128 10131 10134 10137 10140 10144
10164 10161 10159 10157 10155 10153 10151 10150 10148 10147 10145 10143 10141 10138 10135 10132 10128 10125 10122 10118 10115 10113 10111 10108 10107 10106 10105 10104 10103 10102 10101 10100 10101 10102 10103 10104 10105 10106 10108 10110 10114 10117 10120 10124
10158 10156 10154 10152 10151 10149 10148 10146 10143 10142 10140 10137 10135 10131 10127 10123 10119 10116 10113 10109 10105 10102 10098 10095 10093 10091 10089 10087 10086 10085 10084 10083 10082 10082 10083 10084 10086 10087 10088 10090 10092 10096 10099 10102
10153 10151 10150 10149 10147 10145 10144 10142 10140 10138 10135 10132 10129 10125 10121 10117 10112 10108 10103 10099 10094 10091 10087 10084 10080 10077 10075 10072 10070 10069 10068 10067 10066 10065 10065 10065 10066 10067 10069 10071 10072 10075 10078 10081
10149 10148 10146 10145 10144 10142 10140 10138 10136 10133 10130 10126 10122 10118 10114 10109 10105 10100 10095 10090 10086 10082 10077 10072 10068 10065 10061 10058 10056 10054 10052 10050 10049 10048 10047 10047 10047 10048 10049 10051 10052 10055 10057 10060
10145 10144 10143 10142 10140 10138 10136 10133 10130 10127 10123 10120 10116 10111 10107 10102 10096 10092 10087 10082 10077 10073 10068 10063 10058 10053 10049 10046 10042 10039 10037 10035 10033 10032 10030 10030 10029 10030 10030 10031 10033 10034 10036 10038
10141 10140 10139 10138 10136 10134 10131 10128 10126 10123 10119 10116 10112 10108 10103 10097 10091 10086 10080 10075 10069 10063 10058 10053 10048 10043 10038 10033 10029 10026 10023 10020 10017 10015 10014 10012 10011 10010 10010 10011 10012 10013 10015 10017
10136 10136 10135 10133 10131 10129 10128 10125 10122 10119 10116 10113 10109 10104 10098 10092 10086 10080 10074 10067 10061 10055 10048 10042 10037 10032 10027 10022 10018 10013 10009 10006 10003 10000 9997 9995 9994 9992 9991 9991 9991 9992 9993 9995
10132 10132 10130 10129 10128 10126 10124 10122 10119 10115 10112 10107 10102 10097 10091 10086 10080 10073 10067 10060 10054 10047 10040 10034 10027 10020 10015 10010 10005 10000 9996 9992 9988 9985 9982 9979 9977 9975 9974 9973 9972 9972 9973 9974
10128 10127 10126 10125 10124 10121 10119 10117 10114 10110 10106 10101 10096 10091 10086 10079 10073 10066 10060 10053 10046 10039 10032 10024 10017 10009 10003 9997 9992 9987 9982 9978 9974 9970 9967 9964 9962 9959 9957 9956 9955 9954 9954 9953